Hourly Data Report for October 22, 2014

All times are specified in Local Standard Time (LST). Add 1 hour to adjust for Daylight Saving Time where and when it is observed.

TORONTO INTL A
ONTARIO

43°40'36.000" N
79°37'50.000" W
173.40 m
6158731
71624
YYZ

Download Data

Hourly Data (October 2014)
Hourly Data Report for October 22, 2014
Temp Definition
°C
Dew Point Temp Definition
°C
Rel Hum Definition
%
Wind Dir Definition
10's deg

Wind Spd Definition
km/h
Visibility Definition
km
Stn Press Definition
kPa
Hmdx Definition


Wind Chill Definition


Weather Definition


TIME
00:00 Legend Double Dagger 6.4 2.3 75 1 21 24.1 100.09     LegendNANA
01:00 Legend Double Dagger 6.3 2.0 74 1 23 24.1 100.09     Cloudy
02:00 Legend Double Dagger 6.1 1.5 72 1 23 24.1 100.14     LegendNANA
03:00 Legend Double Dagger 4.9 1.6 79 36 21 24.1 100.16     LegendNANA
04:00 Legend Double Dagger 4.2 1.2 81 36 21 24.1 100.21     Mostly Cloudy
05:00 Legend Double Dagger 3.6 1.0 83 36 22 24.1 100.26     LegendNANA
06:00 Legend Double Dagger 3.3 0.7 83 35 23 24.1 100.29     LegendNANA
07:00 Legend Double Dagger 3.1 0.8 85 35 23 24.1 100.36     Mainly Clear
08:00 Legend Double Dagger 4.1 1.1 81 35 25 24.1 100.41     LegendNANA
09:00 Legend Double Dagger 5.0 1.7 79 36 21 24.1 100.45     LegendNANA
10:00 Legend Double Dagger 6.8 2.9 76 35 16 24.1 100.45     Mainly Clear
11:00 Legend Double Dagger 9.8 3.8 66 35 17 24.1 100.42     LegendNANA
12:00 Legend Double Dagger 11.7 4.2 60 1 19 24.1 100.37     LegendNANA
13:00 Legend Double Dagger 12.4 4.9 60 35 10 24.1 100.32     Clear
14:00 Legend Double Dagger 13.4 5.1 57 36 17 24.1 100.28     LegendNANA
15:00 Legend Double Dagger 12.1 4.9 61 35 18 24.1 100.28     LegendNANA
16:00 Legend Double Dagger 11.8 4.1 59 1 18 24.1 100.28     Mainly Clear
17:00 Legend Double Dagger 11.2 4.5 63 35 24 24.1 100.27     LegendNANA
18:00 Legend Double Dagger 10.1 4.1 66 34 20 24.1 100.30     LegendNANA
19:00 Legend Double Dagger 8.9 3.6 69 35 20 24.1 100.29     Mainly Clear
20:00 Legend Double Dagger 8.4 3.9 73 35 25 24.1 100.32     LegendNANA
21:00 Legend Double Dagger 8.6 4.8 77 36 27 24.1 100.33     LegendNANA
22:00 Legend Double Dagger 8.2 5.0 80 1 20 24.1 100.32     Mostly Cloudy
23:00 Legend Double Dagger 7.5 4.8 83 35 20 24.1 100.30     LegendNANA

Notes on Data Quality.

Legend

  • E = Estimated
  • M = Missing
  • NA = Not Available
  • ‡ = Partner data that is not subject to review by the National Climate Archives
Date modified: